User: anonymous   Login
Location: Iesi
(43.5167°N, 13.2333°E)
Time: 14:42:19
(UTC+00:00)
Language:

Meteor 1-11 Rocket - Orbit

View from above orbital plane
View from above orbital plane
View from above satellite
View from above satellite

Ground track
Ground track

The orbit data is extracted from the following two-line orbital elements,

1  5918U 72022B   20296.21558693 -.00000010  00000-0 -14039-4 0  9998
2  5918  81.2398 222.7259 0059400 129.5988 231.0447 14.05874051489844
Epoch (UTC): 22 October 2020 05:10:26
Eccentricity: 0.0059400
inclination: 81.2398°
perigee height: 830 km
apogee height: 916 km
right ascension of ascending node: 222.7259°
argument of perigee: 129.5988°
revolutions per day: 14.05874051
mean anomaly at epoch: 231.0447°
orbit number at epoch: 48984

The dashed part of the orbit path shows where the satellite is in the earth's shadow,  

DLR